START_TIME,STEP,MOV.,AL01,t_acc.,AL02,t_acc.,E37,t_acc.,H21,t_acc.
1979-07-05 06:00:35.060 ,1,1,0.,24.0,0.,24.0,0.,24.0,0.,24.0
1979-07-05 06:00:59.060 ,2,1,0.,24.0,0.,24.0,0.,24.0,0.,24.0
1979-07-05 06:01:23.060 ,6,1,0.,24.0,0.,24.0,0.,24.0,0.,24.0
1979-07-05 06:01:47.060 ,5,1,19.,24.0,0.,24.0,1.,24.0,0.,24.0
1979-07-05 06:02:11.060 ,1,1,0.,24.0,0.,24.0,0.,24.0,0.,24.0
1979-07-05 06:02:35.060 ,2,1,0.,24.0,0.,24.0,0.,24.0,0.,24.0
1979-07-05 06:02:59.060 ,6,1,1.,24.0,0.,24.0,0.,24.0,0.,24.0
1979-07-05 06:03:23.060 ,5,1,16.,24.0,0.,24.0,0.,24.0,0.,24.0
1979-07-05 06:03:47.060 ,1,1,0.,24.0,0.,24.0,0.,24.0,0.,24.0
1979-07-05 06:04:11.060 ,2,1,0.,24.0,0.,24.0,0.,24.0,0.,24.0
1979-07-05 06:04:35.060 ,6,1,0.,24.0,0.,24.0,0.,24.0,0.,24.0
1979-07-05 06:04:59.060 ,5,1,10.,24.0,0.,24.0,1.,24.0,0.,24.0
1979-07-05 06:05:23.060 ,1,1,1.,24.0,0.,24.0,0.,24.0,0.,24.0
1979-07-05 06:05:47.060 ,0,0,0.,24.0,0.,24.0,0.,24.0,0.,24.0
1979-07-05 06:06:11.050 ,0,0,0.,24.0,0.,24.0,0.,24.0,0.,24.0
1979-07-05 06:06:35.050 ,5,1,14.,24.0,0.,24.0,0.,24.0,0.,24.0
1979-07-05 06:06:59.050 ,5,0,0.,24.0,0.,24.0,1.,24.0,0.,24.0
1979-07-05 06:07:23.050 ,4,1,1.,24.0,0.,24.0,0.,24.0,0.,24.0
1979-07-05 06:07:47.050 ,4,0,0.,24.0,0.,24.0,0.,24.0,0.,24.0
1979-07-05 06:08:11.050 ,3,1,0.,24.0,0.,24.0,0.,24.0,0.,24.0
1979-07-05 06:08:35.050 ,3,0,1.,24.0,0.,24.0,0.,24.0,0.,24.0
1979-07-05 06:08:59.050 ,2,1,0.,24.0,0.,24.0,0.,24.0,0.,24.0
1979-07-05 06:09:23.050 ,2,0,0.,24.0,0.,24.0,0.,24.0,0.,24.0
1979-07-05 06:09:47.050 ,1,1,0.,24.0,0.,24.0,0.,24.0,0.,24.0
1979-07-05 06:10:11.050 ,1,0,0.,24.0,0.,24.0,0.,24.0,0.,24.0
1979-07-05 06:10:35.050 ,0,1,0.,24.0,0.,24.0,1.,24.0,0.,24.0
1979-07-05 06:10:59.050 ,0,0,0.,24.0,0.,24.0,1.,24.0,0.,24.0
1979-07-05 06:11:23.050 ,0,1,0.,24.0,0.,24.0,0.,24.0,0.,24.0
1979-07-05 06:11:47.050 ,0,0,0.,24.0,0.,24.0,0.,24.0,0.,24.0
1979-07-05 06:12:11.050 ,1,1,0.,24.0,0.,24.0,0.,24.0,0.,24.0
1979-07-05 06:12:35.050 ,1,0,0.,24.0,0.,24.0,0.,24.0,0.,24.0
1979-07-05 06:12:59.050 ,2,1,0.,24.0,0.,24.0,0.,24.0,0.,24.0
1979-07-05 06:13:23.050 ,0,0,0.,24.0,0.,24.0,0.,24.0,0.,24.0
1979-07-05 06:13:51.850 ,0,0,0.,24.0,0.,24.0,0.,24.0,0.,24.0
1979-07-05 06:14:11.050 ,0,0,0.,24.0,0.,24.0,0.,24.0,0.,24.0
1979-07-05 06:14:35.050 ,4,1,0.,24.0,0.,24.0,0.,24.0,0.,24.0
1979-07-05 06:14:59.050 ,4,0,0.,24.0,0.,24.0,0.,24.0,0.,24.0
1979-07-05 06:15:23.050 ,5,1,0.,24.0,0.,24.0,1.,24.0,0.,24.0
1979-07-05 06:15:47.050 ,5,0,0.,24.0,0.,24.0,1.,24.0,0.,24.0
1979-07-05 06:16:11.050 ,6,1,0.,24.0,0.,24.0,0.,24.0,0.,24.0
1979-07-05 06:16:35.050 ,6,0,0.,24.0,0.,24.0,1.,24.0,0.,24.0
1979-07-05 06:16:59.050 ,7,1,6.,24.0,0.,24.0,0.,24.0,0.,24.0
1979-07-05 06:17:23.050 ,7,0,30.,24.0,0.,24.0,0.,24.0,0.,24.0
1979-07-05 06:17:47.050 ,7,1,38.,24.0,0.,24.0,0.,24.0,0.,24.0
1979-07-05 06:18:11.050 ,7,0,33.,24.0,0.,24.0,0.,24.0,0.,24.0
1979-07-05 06:18:35.050 ,6,1,16.,24.0,0.,24.0,1.,24.0,0.,24.0
1979-07-05 06:18:59.050 ,6,0,0.,24.0,1.,24.0,0.,24.0,0.,24.0
1979-07-05 06:19:23.050 ,5,1,0.,24.0,0.,24.0,0.,24.0,0.,24.0
1979-07-05 06:19:47.050 ,5,0,0.,24.0,0.,24.0,0.,24.0,0.,24.0
1979-07-05 06:20:11.050 ,4,1,0.,24.0,0.,24.0,0.,24.0,0.,24.0
1979-07-05 06:20:35.050 ,4,0,0.,24.0,0.,24.0,0.,24.0,0.,24.0
1979-07-05 06:20:59.050 ,3,1,0.,24.0,0.,24.0,0.,24.0,0.,24.0
1979-07-05 06:21:23.050 ,3,0,0.,24.0,0.,24.0,0.,24.0,0.,24.0
1979-07-05 06:21:47.050 ,2,1,0.,24.0,0.,24.0,0.,24.0,0.,24.0
1979-07-05 06:22:11.050 ,2,0,0.,24.0,0.,24.0,0.,24.0,0.,24.0
1979-07-05 06:22:35.050 ,1,1,0.,24.0,0.,24.0,0.,24.0,0.,24.0
1979-07-05 06:22:59.050 ,1,0,0.,24.0,0.,24.0,0.,24.0,0.,24.0
1979-07-05 06:23:23.050 ,0,1,0.,24.0,0.,24.0,1.,24.0,0.,24.0
1979-07-05 06:23:47.050 ,0,0,0.,24.0,0.,24.0,0.,24.0,0.,24.0
1979-07-05 06:24:11.050 ,0,1,0.,24.0,0.,24.0,0.,24.0,0.,24.0
1979-07-05 06:24:35.050 ,0,0,0.,24.0,0.,24.0,0.,24.0,0.,24.0
1979-07-05 06:24:59.050 ,1,1,0.,24.0,0.,24.0,1.,24.0,0.,24.0
1979-07-05 06:25:23.050 ,1,0,0.,24.0,0.,24.0,0.,24.0,0.,24.0
1979-07-05 06:25:47.050 ,2,1,0.,24.0,0.,24.0,1.,24.0,0.,24.0
1979-07-05 06:26:11.050 ,2,0,0.,24.0,0.,24.0,0.,24.0,0.,24.0
1979-07-05 06:26:35.050 ,3,1,0.,24.0,0.,24.0,0.,24.0,0.,24.0
1979-07-05 06:26:59.050 ,3,0,0.,24.0,0.,24.0,0.,24.0,0.,24.0
1979-07-05 06:27:23.050 ,4,1,0.,24.0,0.,24.0,0.,24.0,0.,24.0
1979-07-05 06:27:47.050 ,4,0,0.,24.0,0.,24.0,0.,24.0,0.,24.0
1979-07-05 06:28:11.050 ,5,1,0.,24.0,0.,24.0,1.,24.0,0.,24.0
1979-07-05 06:28:35.050 ,5,0,0.,24.0,0.,24.0,1.,24.0,0.,24.0
1979-07-05 06:28:59.050 ,6,1,0.,24.0,0.,24.0,0.,24.0,0.,24.0
1979-07-05 06:29:23.050 ,6,0,0.,24.0,0.,24.0,0.,24.0,0.,24.0
1979-07-05 06:29:47.050 ,7,1,5.,24.0,0.,24.0,0.,24.0,0.,24.0
1979-07-05 06:30:11.050 ,7,0,30.,24.0,0.,24.0,0.,24.0,0.,24.0
1979-07-05 06:30:35.050 ,7,1,23.,24.0,0.,24.0,0.,24.0,0.,24.0
1979-07-05 06:30:59.050 ,7,0,31.,24.0,0.,24.0,0.,24.0,0.,24.0
1979-07-05 06:31:23.050 ,6,1,16.,24.0,0.,24.0,0.,24.0,0.,24.0
1979-07-05 06:31:47.050 ,6,0,0.,24.0,0.,24.0,0.,24.0,0.,24.0
1979-07-05 06:32:11.050 ,5,1,0.,24.0,0.,24.0,0.,24.0,0.,24.0
1979-07-05 06:32:35.050 ,5,0,0.,24.0,0.,24.0,0.,24.0,0.,24.0
1979-07-05 06:32:59.050 ,4,1,0.,24.0,0.,24.0,0.,24.0,0.,24.0
1979-07-05 06:33:23.050 ,4,0,0.,24.0,0.,24.0,0.,24.0,0.,24.0
1979-07-05 06:33:47.050 ,3,1,1.,24.0,0.,24.0,0.,24.0,0.,24.0
1979-07-05 06:34:11.050 ,3,0,0.,24.0,0.,24.0,1.,24.0,0.,24.0
1979-07-05 06:34:35.050 ,2,1,0.,24.0,0.,24.0,0.,24.0,0.,24.0
1979-07-05 06:34:59.050 ,2,0,0.,24.0,0.,24.0,0.,24.0,0.,24.0
1979-07-05 06:35:23.050 ,1,1,2.,24.0,0.,24.0,0.,24.0,0.,24.0
1979-07-05 06:35:47.050 ,1,0,0.,24.0,0.,24.0,0.,24.0,0.,24.0
1979-07-05 06:36:11.050 ,0,1,0.,24.0,0.,24.0,1.,24.0,0.,24.0
1979-07-05 06:36:35.050 ,0,0,0.,24.0,0.,24.0,0.,24.0,0.,24.0
1979-07-05 06:36:59.050 ,0,1,0.,24.0,0.,24.0,0.,24.0,0.,24.0
1979-07-05 06:37:23.050 ,0,0,0.,24.0,0.,24.0,0.,24.0,0.,24.0
1979-07-05 06:37:47.050 ,1,1,0.,24.0,1.,24.0,0.,24.0,0.,24.0
1979-07-05 06:38:11.050 ,1,0,0.,24.0,0.,24.0,0.,24.0,0.,24.0
1979-07-05 06:38:35.050 ,2,1,0.,24.0,0.,24.0,0.,24.0,0.,24.0
1979-07-05 06:38:59.050 ,2,0,0.,24.0,0.,24.0,0.,24.0,0.,24.0
1979-07-05 06:39:23.050 ,3,1,0.,24.0,0.,24.0,0.,24.0,0.,24.0
1979-07-05 06:39:47.050 ,3,0,0.,24.0,0.,24.0,0.,24.0,0.,24.0
1979-07-05 06:40:11.050 ,4,1,0.,24.0,0.,24.0,0.,24.0,0.,24.0
1979-07-05 06:40:35.050 ,4,0,0.,24.0,0.,24.0,0.,24.0,0.,24.0
1979-07-05 06:40:59.050 ,5,1,0.,24.0,0.,24.0,0.,24.0,0.,24.0
1979-07-05 06:41:23.050 ,5,0,0.,24.0,0.,24.0,0.,24.0,0.,24.0
1979-07-05 06:41:47.050 ,6,1,0.,24.0,0.,24.0,1.,24.0,0.,24.0
1979-07-05 06:42:11.050 ,6,0,0.,24.0,0.,24.0,1.,24.0,0.,24.0
1979-07-05 06:42:35.050 ,7,0,6.,24.0,1.,24.0,0.,24.0,0.,24.0
1979-07-05 06:42:59.050 ,7,0,34.,24.0,0.,24.0,0.,24.0,0.,24.0
1979-07-05 06:43:23.050 ,5,1,14.,24.0,0.,24.0,0.,24.0,0.,24.0
1979-07-05 06:43:47.050 ,1,1,0.,24.0,0.,24.0,1.,24.0,0.,24.0
1979-07-05 06:44:11.050 ,2,1,0.,24.0,0.,24.0,0.,24.0,0.,24.0
1979-07-05 06:44:35.050 ,6,1,0.,24.0,0.,24.0,0.,24.0,0.,24.0
1979-07-05 06:44:59.050 ,5,1,13.,24.0,0.,24.0,0.,24.0,0.,24.0
1979-07-05 06:45:23.050 ,1,1,0.,24.0,0.,24.0,0.,24.0,0.,24.0
1979-07-05 06:45:47.050 ,2,1,0.,24.0,0.,24.0,0.,24.0,0.,24.0
1979-07-05 06:46:11.050 ,6,1,0.,24.0,0.,24.0,0.,24.0,0.,24.0
1979-07-05 06:46:35.050 ,5,1,14.,24.0,0.,24.0,0.,24.0,0.,24.0
1979-07-05 06:46:59.050 ,1,1,1.,24.0,0.,24.0,0.,24.0,0.,24.0
1979-07-05 06:47:23.050 ,2,1,0.,24.0,0.,24.0,1.,24.0,0.,24.0
1979-07-05 06:47:47.050 ,6,1,0.,24.0,0.,24.0,0.,24.0,0.,24.0
1979-07-05 06:48:11.050 ,5,1,16.,24.0,0.,24.0,0.,24.0,0.,24.0
1979-07-05 06:48:35.050 ,1,1,0.,24.0,0.,24.0,0.,24.0,0.,24.0
1979-07-05 06:48:59.050 ,2,1,0.,24.0,0.,24.0,0.,24.0,0.,24.0
1979-07-05 06:49:23.050 ,6,1,2.,24.0,0.,24.0,0.,24.0,0.,24.0
1979-07-05 06:49:47.050 ,5,1,17.,24.0,0.,24.0,0.,24.0,0.,24.0
1979-07-05 06:50:11.050 ,1,1,0.,24.0,0.,24.0,0.,24.0,0.,24.0
1979-07-05 06:50:35.050 ,2,1,0.,24.0,0.,24.0,0.,24.0,0.,24.0
1979-07-05 06:50:59.050 ,6,1,0.,24.0,0.,24.0,1.,24.0,0.,24.0
1979-07-05 06:51:23.050 ,5,1,15.,24.0,0.,24.0,0.,24.0,0.,24.0
1979-07-05 06:51:47.050 ,1,1,0.,24.0,0.,24.0,0.,24.0,0.,24.0
1979-07-05 06:52:11.050 ,2,1,0.,24.0,0.,24.0,0.,24.0,0.,24.0
1979-07-05 06:52:35.050 ,6,1,0.,24.0,0.,24.0,1.,24.0,0.,24.0
1979-07-05 06:52:59.050 ,5,1,18.,24.0,0.,24.0,0.,24.0,0.,24.0
1979-07-05 06:53:23.050 ,1,1,0.,24.0,0.,24.0,0.,24.0,0.,24.0
1979-07-05 06:53:47.050 ,0,0,0.,24.0,0.,24.0,0.,24.0,0.,24.0
1979-07-05 06:54:11.050 ,0,0,1.,24.0,0.,24.0,0.,24.0,0.,24.0
1979-07-05 06:54:35.050 ,5,1,16.,24.0,0.,24.0,0.,24.0,0.,24.0
1979-07-05 06:54:59.050 ,5,0,1.,24.0,1.,24.0,0.,24.0,0.,24.0
1979-07-05 06:55:23.050 ,4,1,0.,24.0,0.,24.0,0.,24.0,0.,24.0
1979-07-05 06:55:47.050 ,4,0,0.,24.0,0.,24.0,0.,24.0,0.,24.0
1979-07-05 06:56:11.050 ,3,1,0.,24.0,0.,24.0,0.,24.0,0.,24.0
1979-07-05 06:56:35.050 ,3,0,0.,24.0,0.,24.0,0.,24.0,0.,24.0
1979-07-05 06:56:59.050 ,2,1,0.,24.0,0.,24.0,0.,24.0,0.,24.0
1979-07-05 06:57:23.050 ,2,0,1.,24.0,0.,24.0,0.,24.0,0.,24.0
1979-07-05 06:57:47.050 ,1,1,0.,24.0,0.,24.0,0.,24.0,0.,24.0
1979-07-05 06:58:11.050 ,1,0,0.,24.0,0.,24.0,1.,24.0,0.,24.0
1979-07-05 06:58:35.050 ,0,1,0.,24.0,0.,24.0,0.,24.0,0.,24.0
1979-07-05 06:58:59.050 ,0,0,0.,24.0,0.,24.0,0.,24.0,0.,24.0
1979-07-05 06:59:23.050 ,0,1,0.,24.0,0.,24.0,0.,24.0,0.,24.0
1979-07-05 06:59:47.050 ,0,0,0.,24.0,0.,24.0,0.,24.0,0.,24.0
1979-07-05 07:00:11.050 ,1,1,0.,24.0,0.,24.0,1.,24.0,0.,24.0
1979-07-05 07:00:35.050 ,1,0,0.,24.0,0.,24.0,1.,24.0,0.,24.0
1979-07-05 07:00:59.050 ,2,1,0.,24.0,0.,24.0,0.,24.0,0.,24.0
1979-07-05 07:01:23.050 ,2,0,0.,24.0,0.,24.0,0.,24.0,0.,24.0
1979-07-05 07:01:47.050 ,3,1,0.,24.0,0.,24.0,0.,24.0,0.,24.0
1979-07-05 07:02:11.050 ,3,0,0.,24.0,0.,24.0,0.,24.0,0.,24.0
1979-07-05 07:02:35.050 ,4,1,0.,24.0,0.,24.0,0.,24.0,0.,24.0
1979-07-05 07:02:59.050 ,4,0,0.,24.0,0.,24.0,0.,24.0,0.,24.0
1979-07-05 07:03:23.050 ,5,1,0.,24.0,0.,24.0,2.,24.0,0.,24.0
1979-07-05 07:03:47.050 ,5,0,0.,24.0,0.,24.0,0.,24.0,0.,24.0
1979-07-05 07:04:11.050 ,6,1,0.,24.0,0.,24.0,0.,24.0,0.,24.0
1979-07-05 07:04:35.050 ,6,0,0.,24.0,0.,24.0,0.,24.0,0.,24.0
1979-07-05 07:04:59.050 ,7,1,9.,24.0,0.,24.0,0.,24.0,0.,24.0
1979-07-05 07:05:23.050 ,7,0,25.,24.0,0.,24.0,0.,24.0,0.,24.0
1979-07-05 07:05:47.050 ,7,1,28.,24.0,0.,24.0,0.,24.0,0.,24.0
1979-07-05 07:06:11.050 ,7,0,36.,24.0,0.,24.0,0.,24.0,0.,24.0
1979-07-05 07:06:35.050 ,6,1,36.,24.0,0.,24.0,0.,24.0,0.,24.0
1979-07-05 07:06:59.050 ,6,0,0.,24.0,0.,24.0,0.,24.0,0.,24.0
1979-07-05 07:07:23.050 ,5,1,0.,24.0,0.,24.0,0.,24.0,0.,24.0
1979-07-05 07:07:47.050 ,5,0,0.,24.0,0.,24.0,0.,24.0,0.,24.0
1979-07-05 07:08:11.050 ,4,1,0.,24.0,0.,24.0,1.,24.0,0.,24.0
1979-07-05 07:08:35.050 ,4,0,0.,24.0,0.,24.0,0.,24.0,0.,24.0
1979-07-05 07:08:59.050 ,3,1,0.,24.0,0.,24.0,0.,24.0,0.,24.0
1979-07-05 07:09:23.050 ,3,0,0.,24.0,0.,24.0,0.,24.0,0.,24.0
1979-07-05 07:09:47.050 ,2,1,0.,24.0,0.,24.0,0.,24.0,0.,24.0
1979-07-05 07:10:11.050 ,2,0,0.,24.0,0.,24.0,0.,24.0,0.,24.0
1979-07-05 07:10:35.050 ,1,1,0.,24.0,0.,24.0,0.,24.0,0.,24.0
1979-07-05 07:10:59.050 ,1,0,0.,24.0,0.,24.0,0.,24.0,0.,24.0
1979-07-05 07:11:23.050 ,0,1,1.,24.0,0.,24.0,0.,24.0,0.,24.0
1979-07-05 07:11:47.050 ,0,0,0.,24.0,0.,24.0,0.,24.0,0.,24.0
1979-07-05 07:12:11.050 ,0,1,0.,24.0,0.,24.0,0.,24.0,0.,24.0
1979-07-05 07:12:35.050 ,0,0,0.,24.0,0.,24.0,0.,24.0,0.,24.0
1979-07-05 07:12:59.050 ,1,1,0.,24.0,0.,24.0,2.,24.0,0.,24.0
1979-07-05 07:13:23.050 ,1,0,0.,24.0,0.,24.0,0.,24.0,0.,24.0
1979-07-05 07:13:47.050 ,2,1,0.,24.0,1.,24.0,0.,24.0,0.,24.0
1979-07-05 07:14:11.050 ,2,0,0.,24.0,0.,24.0,0.,24.0,0.,24.0
1979-07-05 07:14:35.050 ,3,1,0.,24.0,0.,24.0,0.,24.0,0.,24.0
1979-07-05 07:14:59.050 ,3,0,0.,24.0,0.,24.0,0.,24.0,0.,24.0
1979-07-05 07:15:23.050 ,4,1,0.,24.0,0.,24.0,0.,24.0,0.,24.0
1979-07-05 07:15:47.050 ,4,0,2.,24.0,0.,24.0,0.,24.0,0.,24.0
1979-07-05 07:16:11.050 ,5,1,0.,24.0,0.,24.0,0.,24.0,0.,24.0
1979-07-05 07:16:35.050 ,5,0,1.,24.0,0.,24.0,0.,24.0,0.,24.0
1979-07-05 07:16:59.050 ,6,1,1.,24.0,0.,24.0,1.,24.0,0.,24.0
1979-07-05 07:17:23.050 ,6,0,0.,24.0,0.,24.0,0.,24.0,0.,24.0
1979-07-05 07:17:47.050 ,7,1,8.,24.0,0.,24.0,0.,24.0,0.,24.0
1979-07-05 07:18:11.050 ,7,0,34.,24.0,1.,24.0,0.,24.0,0.,24.0
1979-07-05 07:18:35.050 ,0,0,33.,24.0,0.,24.0,0.,24.0,0.,24.0
1979-07-05 07:18:59.050 ,0,0,,0,,0,,0,,0
1979-07-05 07:19:02.050 ,0,0,29.,24.0,0.,24.0,0.,24.0,0.,24.0
1979-07-05 07:19:23.050 ,6,1,18.,24.0,0.,24.0,0.,24.0,0.,24.0
1979-07-05 07:19:47.050 ,6,0,0.,24.0,0.,24.0,0.,24.0,0.,24.0
1979-07-05 07:20:11.050 ,5,1,0.,24.0,0.,24.0,0.,24.0,0.,24.0
1979-07-05 07:20:35.050 ,5,0,0.,24.0,0.,24.0,0.,24.0,0.,24.0
1979-07-05 07:20:59.050 ,4,1,0.,24.0,0.,24.0,0.,24.0,0.,24.0
1979-07-05 07:21:23.050 ,4,0,0.,24.0,0.,24.0,0.,24.0,0.,24.0
1979-07-05 07:21:47.050 ,3,1,0.,24.0,0.,24.0,0.,24.0,0.,24.0
1979-07-05 07:22:11.050 ,3,0,0.,24.0,0.,24.0,0.,24.0,0.,24.0
1979-07-05 07:22:35.050 ,2,1,0.,24.0,0.,24.0,0.,24.0,0.,24.0
1979-07-05 07:22:59.050 ,2,0,0.,24.0,0.,24.0,0.,24.0,0.,24.0
1979-07-05 07:23:23.050 ,1,1,0.,24.0,0.,24.0,0.,24.0,0.,24.0
1979-07-05 07:23:47.050 ,1,0,0.,24.0,0.,24.0,0.,24.0,0.,24.0
1979-07-05 07:24:11.050 ,0,1,0.,24.0,0.,24.0,0.,24.0,0.,24.0
1979-07-05 07:24:35.050 ,0,0,0.,24.0,0.,24.0,1.,24.0,0.,24.0
1979-07-05 07:24:59.050 ,0,1,0.,24.0,0.,24.0,0.,24.0,0.,24.0
1979-07-05 07:25:23.050 ,0,0,0.,24.0,0.,24.0,0.,24.0,0.,24.0
1979-07-05 07:25:47.050 ,1,1,0.,24.0,0.,24.0,0.,24.0,0.,24.0
1979-07-05 07:26:11.050 ,1,0,0.,24.0,0.,24.0,0.,24.0,0.,24.0
1979-07-05 07:26:35.050 ,2,1,1.,24.0,0.,24.0,0.,24.0,0.,24.0
1979-07-05 07:26:59.050 ,2,0,0.,24.0,0.,24.0,0.,24.0,0.,24.0
1979-07-05 07:27:23.050 ,3,1,0.,24.0,0.,24.0,0.,24.0,0.,24.0
1979-07-05 07:27:47.050 ,3,0,0.,24.0,0.,24.0,1.,24.0,0.,24.0
1979-07-05 07:28:11.050 ,4,1,0.,24.0,0.,24.0,0.,24.0,0.,24.0
1979-07-05 07:28:35.050 ,4,0,0.,24.0,0.,24.0,0.,24.0,0.,24.0
1979-07-05 07:28:59.050 ,5,1,0.,24.0,0.,24.0,0.,24.0,0.,24.0
1979-07-05 07:29:23.050 ,5,0,0.,24.0,0.,24.0,0.,24.0,0.,24.0
1979-07-05 07:29:47.050 ,6,1,0.,24.0,0.,24.0,0.,24.0,0.,24.0
1979-07-05 07:30:11.050 ,6,0,0.,24.0,0.,24.0,0.,24.0,0.,24.0
1979-07-05 07:30:35.050 ,7,0,9.,24.0,0.,24.0,1.,24.0,0.,24.0
1979-07-05 07:30:59.050 ,7,0,39.,24.0,0.,24.0,0.,24.0,0.,24.0
1979-07-05 07:31:23.050 ,5,1,26.,24.0,0.,24.0,0.,24.0,0.,24.0
1979-07-05 07:31:47.050 ,1,1,0.,24.0,0.,24.0,0.,24.0,0.,24.0
1979-07-05 07:32:11.050 ,2,1,0.,24.0,0.,24.0,0.,24.0,0.,24.0
1979-07-05 07:32:35.050 ,6,1,0.,24.0,0.,24.0,0.,24.0,0.,24.0
1979-07-05 07:32:59.050 ,5,1,16.,24.0,0.,24.0,0.,24.0,0.,24.0
1979-07-05 07:33:23.050 ,1,1,0.,24.0,0.,24.0,0.,24.0,0.,24.0
1979-07-05 07:33:47.050 ,2,1,0.,24.0,0.,24.0,0.,24.0,0.,24.0
1979-07-05 07:34:11.050 ,6,1,0.,24.0,0.,24.0,0.,24.0,0.,24.0
1979-07-05 07:34:35.050 ,5,1,12.,24.0,0.,24.0,0.,24.0,0.,24.0
1979-07-05 07:34:59.050 ,1,1,0.,24.0,0.,24.0,0.,24.0,0.,24.0
1979-07-05 07:35:23.050 ,2,1,0.,24.0,0.,24.0,0.,24.0,0.,24.0
1979-07-05 07:35:47.050 ,6,1,0.,24.0,1.,24.0,0.,24.0,0.,24.0
1979-07-05 07:36:11.050 ,5,1,12.,24.0,0.,24.0,0.,24.0,0.,24.0
1979-07-05 07:36:35.050 ,1,1,0.,24.0,0.,24.0,1.,24.0,0.,24.0
1979-07-05 07:36:59.050 ,2,1,0.,24.0,0.,24.0,0.,24.0,0.,24.0
1979-07-05 07:37:23.050 ,6,1,0.,24.0,0.,24.0,0.,24.0,0.,24.0
1979-07-05 07:37:47.050 ,5,1,9.,24.0,1.,24.0,0.,24.0,0.,24.0
1979-07-05 07:38:11.050 ,1,1,0.,24.0,0.,24.0,1.,24.0,0.,24.0
1979-07-05 07:38:35.050 ,2,1,1.,24.0,0.,24.0,0.,24.0,0.,24.0
1979-07-05 07:38:59.050 ,6,1,0.,24.0,0.,24.0,0.,24.0,0.,24.0
1979-07-05 07:39:23.050 ,5,1,13.,24.0,0.,24.0,0.,24.0,0.,24.0
1979-07-05 07:39:47.050 ,1,1,0.,24.0,0.,24.0,0.,24.0,0.,24.0
1979-07-05 07:40:11.050 ,2,1,0.,24.0,0.,24.0,1.,24.0,0.,24.0
1979-07-05 07:40:35.050 ,6,1,0.,24.0,0.,24.0,0.,24.0,0.,24.0
1979-07-05 07:40:59.050 ,5,1,12.,24.0,0.,24.0,1.,24.0,0.,24.0
1979-07-05 07:41:23.050 ,1,1,0.,24.0,0.,24.0,0.,24.0,0.,24.0
1979-07-05 07:41:47.050 ,0,0,0.,24.0,0.,24.0,0.,24.0,0.,24.0
1979-07-05 07:42:11.050 ,0,0,0.,24.0,0.,24.0,0.,24.0,0.,24.0
1979-07-05 07:42:35.050 ,5,1,14.,24.0,0.,24.0,0.,24.0,0.,24.0
1979-07-05 07:42:59.050 ,5,0,1.,24.0,0.,24.0,0.,24.0,0.,24.0
1979-07-05 07:43:23.050 ,4,1,0.,24.0,0.,24.0,0.,24.0,0.,24.0
1979-07-05 07:43:47.050 ,4,0,0.,24.0,0.,24.0,0.,24.0,0.,24.0
1979-07-05 07:44:11.050 ,3,1,0.,24.0,0.,24.0,0.,24.0,0.,24.0
1979-07-05 07:44:35.050 ,3,0,0.,24.0,0.,24.0,0.,24.0,0.,24.0
1979-07-05 07:44:59.050 ,2,1,0.,24.0,0.,24.0,0.,24.0,0.,24.0
1979-07-05 07:45:23.050 ,2,0,0.,24.0,0.,24.0,0.,24.0,0.,24.0
1979-07-05 07:45:47.050 ,1,1,0.,24.0,0.,24.0,0.,24.0,0.,24.0
1979-07-05 07:46:11.050 ,1,0,0.,24.0,0.,24.0,0.,24.0,0.,24.0
1979-07-05 07:46:35.050 ,0,1,0.,24.0,0.,24.0,1.,24.0,0.,24.0
1979-07-05 07:46:59.050 ,0,0,0.,24.0,0.,24.0,0.,24.0,0.,24.0
1979-07-05 07:47:23.050 ,0,1,1.,24.0,0.,24.0,0.,24.0,0.,24.0
1979-07-05 07:47:47.050 ,0,0,0.,24.0,0.,24.0,0.,24.0,0.,24.0
1979-07-05 07:48:11.050 ,1,1,1.,24.0,0.,24.0,0.,24.0,0.,24.0
1979-07-05 07:48:35.050 ,1,0,1.,24.0,0.,24.0,0.,24.0,0.,24.0
1979-07-05 07:48:59.050 ,2,1,0.,24.0,0.,24.0,0.,24.0,0.,24.0
1979-07-05 07:49:23.050 ,2,0,0.,24.0,0.,24.0,0.,24.0,0.,24.0
1979-07-05 07:49:47.050 ,3,1,0.,24.0,0.,24.0,0.,24.0,0.,24.0
1979-07-05 07:50:11.050 ,3,0,0.,24.0,0.,24.0,0.,24.0,0.,24.0
1979-07-05 07:50:35.050 ,4,1,1.,24.0,0.,24.0,0.,24.0,0.,24.0
1979-07-05 07:50:59.050 ,4,0,0.,24.0,0.,24.0,0.,24.0,0.,24.0
1979-07-05 07:51:23.050 ,5,1,1.,24.0,0.,24.0,0.,24.0,0.,24.0
1979-07-05 07:51:47.050 ,5,0,0.,24.0,0.,24.0,0.,24.0,0.,24.0
1979-07-05 07:52:11.050 ,6,1,0.,24.0,0.,24.0,0.,24.0,0.,24.0
1979-07-05 07:52:35.050 ,6,0,0.,24.0,0.,24.0,0.,24.0,0.,24.0
1979-07-05 07:52:59.050 ,7,1,7.,24.0,0.,24.0,0.,24.0,0.,24.0
1979-07-05 07:53:23.050 ,7,0,24.,24.0,0.,24.0,1.,24.0,0.,24.0
1979-07-05 07:53:47.050 ,7,1,28.,24.0,0.,24.0,0.,24.0,0.,24.0
1979-07-05 07:54:11.050 ,7,0,35.,24.0,0.,24.0,0.,24.0,0.,24.0
1979-07-05 07:54:35.050 ,6,1,32.,24.0,0.,24.0,0.,24.0,0.,24.0
1979-07-05 07:54:59.050 ,6,0,0.,24.0,0.,24.0,0.,24.0,0.,24.0
1979-07-05 07:55:23.050 ,5,1,0.,24.0,0.,24.0,0.,24.0,0.,24.0
1979-07-05 07:55:47.050 ,5,0,0.,24.0,0.,24.0,0.,24.0,0.,24.0
1979-07-05 07:56:11.050 ,4,1,0.,24.0,0.,24.0,0.,24.0,0.,24.0
1979-07-05 07:56:35.050 ,4,0,0.,24.0,0.,24.0,0.,24.0,0.,24.0
1979-07-05 07:56:59.050 ,3,1,0.,24.0,0.,24.0,1.,24.0,0.,24.0
1979-07-05 07:57:23.050 ,3,0,0.,24.0,0.,24.0,0.,24.0,0.,24.0
1979-07-05 07:57:47.050 ,2,1,0.,24.0,0.,24.0,0.,24.0,0.,24.0
1979-07-05 07:58:11.050 ,2,0,0.,24.0,0.,24.0,0.,24.0,0.,24.0
1979-07-05 07:58:35.050 ,1,1,1.,24.0,0.,24.0,0.,24.0,0.,24.0
1979-07-05 07:58:59.050 ,1,0,1.,24.0,0.,24.0,0.,24.0,0.,24.0
1979-07-05 07:59:23.050 ,0,1,0.,24.0,0.,24.0,0.,24.0,0.,24.0
1979-07-05 07:59:47.050 ,0,0,0.,24.0,0.,24.0,0.,24.0,0.,24.0
1979-07-05 08:00:11.050 ,0,1,0.,24.0,0.,24.0,0.,24.0,0.,24.0
1979-07-05 08:00:35.050 ,0,0,0.,24.0,0.,24.0,0.,24.0,0.,24.0
1979-07-05 08:00:59.050 ,1,1,0.,24.0,0.,24.0,0.,24.0,0.,24.0
1979-07-05 08:01:23.050 ,1,0,0.,24.0,0.,24.0,0.,24.0,0.,24.0
1979-07-05 08:01:47.050 ,2,1,0.,24.0,0.,24.0,0.,24.0,0.,24.0
1979-07-05 08:02:11.050 ,2,0,1.,24.0,0.,24.0,0.,24.0,0.,24.0
1979-07-05 08:02:35.050 ,3,1,0.,24.0,0.,24.0,0.,24.0,0.,24.0
1979-07-05 08:02:59.050 ,3,0,0.,24.0,0.,24.0,0.,24.0,0.,24.0
1979-07-05 08:03:23.050 ,4,1,0.,24.0,0.,24.0,1.,24.0,0.,24.0
1979-07-05 08:03:47.050 ,4,0,0.,24.0,0.,24.0,1.,24.0,0.,24.0
1979-07-05 08:04:11.050 ,5,1,0.,24.0,0.,24.0,1.,24.0,0.,24.0
1979-07-05 08:04:35.050 ,5,0,0.,24.0,0.,24.0,0.,24.0,0.,24.0
1979-07-05 08:04:59.050 ,6,1,0.,24.0,1.,24.0,0.,24.0,0.,24.0
1979-07-05 08:05:23.050 ,6,0,0.,24.0,0.,24.0,0.,24.0,0.,24.0
1979-07-05 08:05:47.050 ,7,1,9.,24.0,0.,24.0,0.,24.0,0.,24.0
1979-07-05 08:06:11.050 ,7,0,24.,24.0,0.,24.0,0.,24.0,0.,24.0
1979-07-05 08:06:35.050 ,7,1,21.,24.0,0.,24.0,0.,24.0,0.,24.0
1979-07-05 08:06:59.050 ,7,0,32.,24.0,0.,24.0,0.,24.0,0.,24.0
1979-07-05 08:07:23.050 ,6,1,28.,24.0,0.,24.0,0.,24.0,0.,24.0
1979-07-05 08:07:47.050 ,6,0,0.,24.0,0.,24.0,0.,24.0,0.,24.0
1979-07-05 08:08:11.050 ,5,1,0.,24.0,0.,24.0,0.,24.0,0.,24.0
1979-07-05 08:08:35.050 ,5,0,0.,24.0,0.,24.0,0.,24.0,0.,24.0
1979-07-05 08:08:59.050 ,4,1,0.,24.0,0.,24.0,0.,24.0,0.,24.0
1979-07-05 08:09:23.050 ,4,0,1.,24.0,0.,24.0,0.,24.0,0.,24.0
1979-07-05 08:09:47.050 ,3,1,0.,24.0,0.,24.0,1.,24.0,0.,24.0
1979-07-05 08:10:11.050 ,3,0,0.,24.0,0.,24.0,0.,24.0,0.,24.0
1979-07-05 08:10:35.050 ,2,1,0.,24.0,0.,24.0,0.,24.0,0.,24.0
1979-07-05 08:10:59.050 ,2,0,0.,24.0,0.,24.0,0.,24.0,0.,24.0
1979-07-05 08:11:23.050 ,1,1,1.,24.0,0.,24.0,1.,24.0,0.,24.0
1979-07-05 08:11:47.050 ,1,0,0.,24.0,0.,24.0,0.,24.0,0.,24.0
1979-07-05 08:12:11.050 ,0,1,0.,24.0,0.,24.0,0.,24.0,0.,24.0
1979-07-05 08:12:35.050 ,0,0,0.,24.0,0.,24.0,0.,24.0,0.,24.0
1979-07-05 08:12:59.050 ,0,1,1.,24.0,0.,24.0,1.,24.0,0.,24.0
1979-07-05 08:13:23.050 ,0,0,0.,24.0,0.,24.0,0.,24.0,0.,24.0
1979-07-05 08:13:47.050 ,1,1,1.,24.0,0.,24.0,0.,24.0,0.,24.0
1979-07-05 08:14:11.050 ,1,0,0.,24.0,0.,24.0,0.,24.0,0.,24.0
1979-07-05 08:14:35.050 ,2,1,0.,24.0,0.,24.0,0.,24.0,0.,24.0
1979-07-05 08:14:59.050 ,2,0,0.,24.0,0.,24.0,0.,24.0,0.,24.0
1979-07-05 08:15:23.050 ,3,1,1.,24.0,0.,24.0,0.,24.0,0.,24.0
1979-07-05 08:15:47.050 ,3,0,0.,24.0,0.,24.0,0.,24.0,0.,24.0
1979-07-05 08:16:11.050 ,4,1,0.,24.0,0.,24.0,0.,24.0,0.,24.0
1979-07-05 08:16:35.050 ,4,0,0.,24.0,0.,24.0,0.,24.0,0.,24.0
1979-07-05 08:16:59.050 ,5,1,0.,24.0,0.,24.0,0.,24.0,0.,24.0
1979-07-05 08:17:23.050 ,5,0,0.,24.0,0.,24.0,0.,24.0,0.,24.0
1979-07-05 08:17:47.050 ,6,1,0.,24.0,0.,24.0,0.,24.0,0.,24.0
1979-07-05 08:18:11.050 ,6,0,0.,24.0,0.,24.0,0.,24.0,0.,24.0
1979-07-05 08:18:35.050 ,7,0,5.,24.0,0.,24.0,0.,24.0,0.,24.0
1979-07-05 08:18:59.050 ,7,0,39.,24.0,0.,24.0,0.,24.0,0.,24.0
1979-07-05 08:19:23.050 ,5,1,15.,24.0,0.,24.0,0.,24.0,0.,24.0
1979-07-05 08:19:47.050 ,1,1,0.,24.0,0.,24.0,0.,24.0,0.,24.0
1979-07-05 08:20:11.050 ,2,1,0.,24.0,0.,24.0,0.,24.0,0.,24.0
1979-07-05 08:20:35.050 ,6,1,0.,24.0,0.,24.0,1.,24.0,0.,24.0
1979-07-05 08:20:59.050 ,5,1,15.,24.0,0.,24.0,0.,24.0,0.,24.0
1979-07-05 08:21:23.050 ,1,1,0.,24.0,0.,24.0,1.,24.0,0.,24.0
1979-07-05 08:21:47.050 ,2,1,0.,24.0,0.,24.0,2.,24.0,0.,24.0
1979-07-05 08:22:11.050 ,6,1,0.,24.0,0.,24.0,0.,24.0,0.,24.0
1979-07-05 08:22:35.050 ,5,1,13.,24.0,0.,24.0,0.,24.0,0.,24.0
1979-07-05 08:22:59.050 ,1,1,0.,24.0,0.,24.0,1.,24.0,0.,24.0
1979-07-05 08:23:23.050 ,2,1,0.,24.0,0.,24.0,0.,24.0,0.,24.0
1979-07-05 08:23:47.050 ,6,1,0.,24.0,0.,24.0,0.,24.0,0.,24.0
1979-07-05 08:24:11.050 ,5,1,19.,24.0,0.,24.0,0.,24.0,0.,24.0
1979-07-05 08:24:35.050 ,1,1,0.,24.0,0.,24.0,0.,24.0,0.,24.0
1979-07-05 08:24:59.050 ,2,1,0.,24.0,0.,24.0,1.,24.0,0.,24.0
1979-07-05 08:25:23.050 ,6,1,0.,24.0,0.,24.0,0.,24.0,0.,24.0
1979-07-05 08:25:47.050 ,5,1,12.,24.0,0.,24.0,0.,24.0,0.,24.0
1979-07-05 08:26:11.050 ,1,1,0.,24.0,1.,24.0,0.,24.0,0.,24.0
1979-07-05 08:26:35.050 ,2,1,0.,24.0,0.,24.0,1.,24.0,0.,24.0
1979-07-05 08:26:59.050 ,6,1,0.,24.0,0.,24.0,0.,24.0,0.,24.0
1979-07-05 08:27:23.050 ,5,1,13.,24.0,0.,24.0,1.,24.0,0.,24.0
1979-07-05 08:27:47.050 ,1,1,0.,24.0,0.,24.0,0.,24.0,0.,24.0
1979-07-05 08:28:11.050 ,2,1,0.,24.0,0.,24.0,0.,24.0,0.,24.0
1979-07-05 08:28:35.050 ,6,1,0.,24.0,0.,24.0,0.,24.0,0.,24.0
1979-07-05 08:29:47.050 ,0,0,0.,24.0,0.,24.0,0.,24.0,0.,24.0
1979-07-05 08:30:11.050 ,0,0,0.,24.0,0.,24.0,0.,24.0,0.,24.0
1979-07-05 08:30:35.050 ,5,1,14.,24.0,1.,24.0,0.,24.0,0.,24.0
1979-07-05 08:30:59.050 ,5,0,1.,24.0,0.,24.0,1.,24.0,0.,24.0
1979-07-05 08:31:23.050 ,4,1,0.,24.0,0.,24.0,0.,24.0,0.,24.0
1979-07-05 08:31:47.050 ,4,0,0.,24.0,0.,24.0,0.,24.0,0.,24.0
1979-07-05 08:32:11.050 ,3,1,0.,24.0,0.,24.0,0.,24.0,0.,24.0
1979-07-05 08:32:35.050 ,3,0,0.,24.0,1.,24.0,0.,24.0,0.,24.0
1979-07-05 08:32:59.050 ,2,1,0.,24.0,0.,24.0,0.,24.0,0.,24.0
1979-07-05 08:33:23.050 ,2,0,0.,24.0,0.,24.0,0.,24.0,0.,24.0
1979-07-05 08:33:47.050 ,1,1,0.,24.0,0.,24.0,0.,24.0,0.,24.0
1979-07-05 08:34:11.050 ,1,0,0.,24.0,0.,24.0,0.,24.0,0.,24.0
1979-07-05 08:34:35.050 ,0,1,0.,24.0,0.,24.0,0.,24.0,0.,24.0